Regional Weather Roundup
Issued by NWS

Home | Current Version | Previous Version | Graphics & Text | Print | Product List | Glossary On
Versions: 1 2 3 4 5 6 7 8 9 10 11 12 13 14 15 16 17 18 19 20 21 22 23 24 25 26 27 28 29 30 31 32 33 34 35 36 37 38 39 40 41 42 43 44 45 46 47 48 49 50
000
ASUS43 KFSD 230710
RWRSD

WEATHER ROUNDUP FOR SOUTH DAKOTA
NATIONAL WEATHER SERVICE SIOUX FALLS SD
100 AM CST FRI FEB 23 2018

NOTE: "FAIR" INDICATES FEW OR NO CLOUDS BELOW 12,000 FEET WITH NO
SIGNIFICANT WEATHER AND/OR OBSTRUCTIONS TO VISIBILITY.


SDZ001>005-009-010-012>017-230800-
NORTHWEST AND NORTH CENTRAL SOUTH DAKOTA

CITY           SKY/WX    TMP DP  RH WIND       PRES   REMARKS
BUFFALO          N/A      3  -4  72 NW9       30.06R WCI -12
FAITH            N/A      3   0  87 NW13      30.12S WCI -14
MOBRIDGE       LGT SNOW  19  15  84 NW7       30.12S FOG     WCI  10
$$

SDZ012>016-024>037-041>051-057-063-072>074-230800-
SOUTHWEST AND SOUTH CENTRAL SOUTH DAKOTA

CITY           SKY/WX    TMP DP  RH WIND       PRES   REMARKS
RAPID CTY ARPT CLEAR      2  -4  76 NW7       30.10F WCI -11
PIERRE         PTCLDY     9   8  96 NW12      30.15R WCI  -6
CUSTER         PTCLDY     1  -4  79 NW5       29.95S WCI  -9
ELLSWORTH AFB  PTCLDY     8  -1  68 NW12      30.09S WCI  -8
PHILIP         MOCLDY     4   0  83 W13       30.16F WCI -13
PINE RIDGE     CLOUDY     8   6  92 W5        30.11R FOG     WCI   0
SPEARFISH        N/A      5  -2  72 W9        30.10S WCI  -9
WINNER         CLOUDY    19  16  88 W12       30.13R WCI   7
$$

SDZ004>011-016>023-039-040-230800-
NORTHEAST SOUTH DAKOTA

CITY           SKY/WX    TMP DP  RH WIND       PRES   REMARKS
ABERDEEN       LGT SNOW  22  20  92 N3        30.15S FOG
WATERTOWN      LGT SNOW  20  19  96 W3        30.07F FOG
BROOKINGS      FLURRIES  20  18  92 SW5       30.09S WCI  13
SISSETON         N/A     21  19  92 N5        30.13F WCI  15
$$

SDZ017-020-022-023-036>040-048>070-230800-
SOUTHEAST SOUTH DAKOTA

CITY           SKY/WX    TMP DP  RH WIND       PRES   REMARKS
SIOUX FALLS    CLOUDY    24  22  91 W6        30.10F WCI  17
HURON          FOG       11  11 100 W6        30.13F VSB 1/2 WCI   1
CHAMBERLAIN    FOG       14  13  96 W7        30.13S VSB 1/2 WCI   4
MITCHELL       MOCLDY    19  18  95 W3        30.14S
YANKTON        CLOUDY    20  18  92 W6        30.14F FOG     WCI  12
$$

ABBREVIATIONS USED IN REMARKS
   TC - TEMPERATURE IN CELSIUS
  WCI - WIND CHILL INDEX
   HX - HEAT INDEX
  VSB - VISIBILITY





USA.gov is the U.S. government's official web portal to all federal, state and local government web resources and services.